Location: Potawatomi Wildlife Park
(41.2308°N, 86.1050°W)
Time: 15:56:04
(UTC-04:00)

Hubble Space Telescope - Visible Passes

Search period start: 04 August 2015 00:00
Search period end: 14 August 2015 00:00
Orbit: 541 x 545 km, 28.5° (Epoch: 03 August)

Date Brightness Start Highest point End Pass type
(mag) Time Alt. Az. Time Alt. Az. Time Alt. Az.
04 Aug 2.9 22:17:37 10° S 22:18:35 11° S 22:18:35 11° S visible
05 Aug 2.8 22:08:13 10° SSW 22:10:04 13° S 22:10:23 13° SSE visible
06 Aug 2.7 21:59:00 10° SSW 22:01:03 13° S 22:02:04 12° SSE visible
07 Aug 2.8 21:49:53 10° SSW 21:52:02 14° S 21:53:40 11° SSE visible
08 Aug 2.8 21:40:51 10° SSW 21:43:01 14° S 21:45:11 10° SSE visible
09 Aug 2.9 21:31:54 10° SW 21:34:00 14° S 21:36:06 10° SSE visible
10 Aug 3.0 21:23:01 10° SW 21:25:00 13° S 21:26:55 10° SSE visible
11 Aug 3.1 21:14:17 10° SSW 21:15:58 12° S 21:17:36 10° SSE visible
